Location: Unspecified
(0.0000°N, 0.0000°E)
Time: 06:37:46
(UTC+00:00)

Courier 1B Rocket - All Passes

Search period start: 21 April 2026 00:00
Search period end: 01 May 2026 00:00
Orbit: 920 x 1201 km, 28.2° (Epoch: 20 April)

Date Brightness Start Highest point End Pass type
(mag) Time Alt. Az. Time Alt. Az. Time Alt. Az.
21 Apr - 01:47:10 10° WNW 01:53:33 88° SSW 01:59:48 10° ESE night (unlit)
21 Apr - 03:42:15 10° WSW 03:47:04 23° SSW 03:51:56 10° SSE visible
21 Apr - 11:22:38 10° SSW 11:28:26 25° SSE 11:34:27 10° E daylight
21 Apr - 13:14:48 10° SW 13:22:26 77° SSE 13:30:17 10° ENE daylight
21 Apr - 15:09:27 10° W 15:16:24 35° NNW 15:23:22 10° NE daylight
21 Apr - 17:08:29 10° NW 17:11:07 12° NNW 17:13:44 10° N daylight
21 Apr - 22:54:14 10° NNW 22:58:28 17° NNE 23:02:34 10° ENE night (unlit)
22 Apr - 00:45:56 10° NW 00:52:20 60° NNE 00:58:30 10° ESE night (unlit)
22 Apr - 02:40:04 10° W 02:45:43 35° SSW 02:51:22 10° SE visible
22 Apr - 10:22:25 10° SSW 10:26:45 17° SSE 10:31:13 10° ESE daylight
22 Apr - 12:13:40 10° SW 12:20:53 53° SSE 12:28:26 10° ENE daylight
22 Apr - 14:07:22 10° WSW 14:14:46 50° NNW 14:22:19 10° NE daylight
22 Apr - 16:04:24 10° WNW 16:09:11 17° NNW 16:13:56 10° NNE daylight
22 Apr - 21:54:10 10° N 21:56:47 12° NNE 21:59:20 10° NE visible
22 Apr - 23:44:52 10° NW 23:51:03 39° NNE 23:56:54 10° E night (unlit)
23 Apr - 01:38:13 10° WNW 01:44:29 55° SSW 01:50:35 10° SE night (unlit)
23 Apr - 03:34:49 10° WSW 03:38:13 15° SSW 03:41:37 10° S visible
23 Apr - 09:23:24 10° S 09:24:58 11° SSE 09:26:33 10° SE daylight
23 Apr - 11:12:50 10° SW 11:19:21 35° SSE 11:26:13 10° E daylight
23 Apr - 13:05:40 10° WSW 13:13:11 73° NNW 13:21:00 10° NE daylight
23 Apr - 15:01:20 10° WNW 15:07:21 24° NNW 15:13:25 10° NNE daylight
23 Apr - 22:43:59 10° NNW 22:49:38 27° NNE 22:54:58 10° E night (unlit)
24 Apr - 00:36:39 10° WNW 00:43:16 86° SSW 00:49:35 10° ESE night (unlit)
24 Apr - 02:31:56 10° WSW 02:36:46 23° SSW 02:41:33 10° SSE night (unlit)
24 Apr - 10:12:19 10° SSW 10:17:48 24° SSE 10:23:33 10° ESE daylight
24 Apr - 12:04:19 10° SW 12:11:40 78° SSE 12:19:25 10° ENE daylight
24 Apr - 13:58:51 10° W 14:05:38 34° NNW 14:12:34 10° NE daylight
24 Apr - 15:57:43 10° NW 16:00:26 12° NNW 16:03:09 10° N daylight
24 Apr - 21:43:17 10° NNW 21:48:03 19° NNE 21:52:36 10° ENE visible
24 Apr - 23:35:17 10° NW 23:42:01 62° NNE 23:48:19 10° ESE night (unlit)
25 Apr - 01:29:36 10° W 01:35:26 35° SSW 01:41:05 10° SE night (unlit)
25 Apr - 09:12:15 10° S 09:16:12 16° SSE 09:20:16 10° ESE daylight
25 Apr - 11:03:17 10° SW 11:10:11 53° SSE 11:17:33 10° ENE daylight
25 Apr - 12:56:52 10° WSW 13:04:00 49° NNW 13:11:27 10° NE daylight
25 Apr - 14:53:46 10° WNW 14:58:27 17° NNW 15:03:10 10° NNE daylight
25 Apr - 20:42:56 10° N 20:46:17 13° NNE 20:49:33 10° NE visible
25 Apr - 22:34:06 10° NW 22:40:39 41° NNE 22:46:48 10° E night (unlit)
26 Apr - 00:27:38 10° WNW 00:34:11 55° SSW 00:40:22 10° SE night (unlit)
26 Apr - 02:24:29 10° WSW 02:27:54 15° SSW 02:31:17 10° S night (unlit)
26 Apr - 10:02:32 10° SW 10:08:44 35° SSE 10:15:20 10° E daylight
26 Apr - 11:55:15 10° WSW 12:02:27 72° NNW 12:10:06 10° NE daylight
26 Apr - 13:50:48 10° WNW 13:56:36 23° NNW 14:02:34 10° NNE daylight
26 Apr - 21:33:06 10° NNW 21:39:10 28° NNE 21:44:52 10° E visible
26 Apr - 23:25:58 10° WNW 23:32:54 85° SSW 23:39:24 10° ESE night (unlit)
27 Apr - 01:21:26 10° WSW 01:26:27 23° SSW 01:31:19 10° SSE night (unlit)
27 Apr - 09:02:06 10° SSW 09:07:16 23° SSE 09:12:41 10° ESE daylight
27 Apr - 10:53:59 10° SW 11:01:00 79° SSE 11:08:31 10° ENE daylight
27 Apr - 12:48:26 10° W 12:54:53 33° NNW 13:01:39 10° NE daylight
27 Apr - 14:47:14 10° NW 14:49:44 12° NNW 14:52:15 10° N daylight
27 Apr - 20:32:17 10° NNW 20:37:31 20° NNE 20:42:31 10° ENE visible
27 Apr - 22:24:29 10° NW 22:31:35 65° NNE 22:38:10 10° ESE visible
28 Apr - 00:18:59 10° W 00:25:06 35° SSW 00:30:54 10° SE night (unlit)
28 Apr - 08:02:10 10° S 08:05:43 15° SSE 08:09:23 10° ESE daylight
28 Apr - 09:53:01 10° SW 09:59:36 52° SSE 10:06:40 10° ENE daylight
28 Apr - 11:46:31 10° W 11:53:18 47° NNW 12:00:32 10° NE daylight
28 Apr - 13:43:22 10° WNW 13:47:45 16° NNW 13:52:14 10° NNE daylight
28 Apr - 19:31:45 10° NNW 19:35:42 15° NNE 19:39:33 10° NE visible
28 Apr - 21:23:14 10° NW 21:30:09 43° NNE 21:36:38 10° E visible
28 Apr - 23:16:56 10° WNW 23:23:47 55° SSW 23:30:12 10° SE night (unlit)
29 Apr - 01:13:56 10° WSW 01:17:34 15° SSW 01:21:07 10° S night (unlit)
29 Apr - 08:52:20 10° SW 08:58:14 34° SSE 09:04:30 10° E daylight
29 Apr - 10:44:58 10° WSW 10:51:49 70° NNW 10:59:12 10° NE daylight
29 Apr - 12:40:28 10° WNW 12:45:55 22° NNW 12:51:36 10° NNE daylight
29 Apr - 18:32:06 10° N 18:33:43 11° NNE 18:35:20 10° NNE visible
29 Apr - 20:22:09 10° NNW 20:28:36 30° NNE 20:34:42 10° E visible
29 Apr - 22:15:09 10° WNW 22:22:27 83° SSW 22:29:13 10° ESE visible
30 Apr - 00:10:47 10° W 00:16:04 23° SSW 00:21:09 10° SSE night (unlit)
30 Apr - 07:51:57 10° SSW 07:56:49 22° SSE 08:01:54 10° ESE daylight
30 Apr - 09:43:45 10° SW 09:50:26 80° SSE 09:57:39 10° ENE daylight
30 Apr - 11:38:09 10° W 11:44:14 31° NNW 11:50:43 10° NNE daylight
30 Apr - 13:37:11 10° NNW 13:39:04 11° NNW 13:40:58 10° N daylight
30 Apr - 19:21:16 10° NNW 19:26:53 22° NNE 19:32:19 10° ENE visible
30 Apr - 21:13:37 10° NW 21:21:03 67° NNE 21:27:58 10° ESE visible
30 Apr - 23:08:14 10° W 23:14:40 36° SSW 23:20:43 10° SE night (unlit)
